Monroe, WI

9:57 AM CST on January 16, 2018 (GMT -0600)
Monroe Municipal

Weather History for KEFT - March, 2013

Change the Weather History Date:

Monday, March 11, 2013

  Actual Average Record
Temperature  
Mean Temperature 32 °F -  
Max Temperature 33 °F 0 °F 64 °F (2006)
Min Temperature 32 °F - 6 °F (1998)
Degree Days  
Heating Degree Days 32    
Moisture  
Dew Point 32 °F    
Average Humidity 100    
Maximum Humidity 100    
Minimum Humidity 93    
Precipitation  
Precipitation 0.00 in - - ()
Sea Level Pressure  
Sea Level Pressure 29.61 in    
Wind  
Wind Speed 8 mph (NW)    
Max Wind Speed 17 mph    
Max Gust Speed 23 mph    
Visibility 5 miles    
Events Fog , Rain , Snow    
Averages and records for this station are not official NWS values.
T = Trace of Precipitation, MM = Missing Value Source: NWS Daily Summary

Daily Weather History Graph

Daily Weather History Graph

Search for Another Location

Airport or City:

Trip Planner

Search our weather history database for the weather conditions in past years. The results will help you decide how hot, cold, wet, or windy it might be!

Date:

Astronomy

Mar. 11, 2013 Rise Set
Actual Time 7:16 AM CDT 7:00 PM CDT
Civil Twilight 6:48 AM CDT 7:28 PM CDT
Nautical Twilight 6:16 AM CDT 8:01 PM CDT
Astronomical Twilight 5:43 AM CDT 8:34 PM CDT
Moon 6:50 AM CDT (3/11) 7:13 PM CDT (3/11)
Length of Visible Light 12h 39m
Length of Day
11h 43m
Waning Crescent, 0% of the Moon is Illuminated
Mar 11
Waning Crescent
Mar 11
New
Mar 19
First Quarter
Mar 27
Full
Apr 2
Last Quarter

Hourly Weather History & Observations

Time (CDT) Temp. Windchill Dew Point Humidity Pressure Visibility Wind Dir Wind Speed Gust Speed Precip Events Conditions
12:15 AM 33.8 °F 27.7 °F 33.8 °F 100% 29.60 in 0.5 mi North 6.9 mph - N/A Fog Fog
12:35 AM 33.8 °F 29.6 °F 33.8 °F 100% 29.60 in 0.2 mi North 4.6 mph - N/A Fog Fog
12:55 AM 33.8 °F 29.6 °F 33.8 °F 100% 29.61 in 0.2 mi North 4.6 mph - N/A Fog Fog
1:15 AM 33.8 °F 29.6 °F 33.8 °F 100% 29.60 in 0.2 mi North 4.6 mph - N/A Fog Fog
1:35 AM 33.8 °F 27.0 °F 33.8 °F 100% 29.60 in 0.2 mi North 8.1 mph - N/A Fog Fog
2:15 AM 33.8 °F 29.6 °F 33.8 °F 100% 29.60 in 0.2 mi NNW 4.6 mph - N/A Fog Fog
2:35 AM 33.8 °F 27.7 °F 33.8 °F 100% 29.59 in 0.2 mi North 6.9 mph - N/A Fog Fog
2:55 AM 33.8 °F 27.7 °F 33.8 °F 100% 29.59 in 0.2 mi North 6.9 mph - N/A Fog Fog
3:15 AM 33.8 °F 28.6 °F 33.8 °F 100% 29.59 in 0.2 mi North 5.8 mph - N/A Fog Fog
3:35 AM 33.8 °F 28.6 °F 33.8 °F 100% 29.58 in 0.2 mi NNW 5.8 mph - N/A Fog Fog
3:55 AM 33.8 °F 30.8 °F 33.8 °F 100% 29.58 in 0.2 mi NNW 3.5 mph - N/A Fog Fog
4:15 AM 33.8 °F 29.6 °F 33.8 °F 100% 29.58 in 0.2 mi NNW 4.6 mph - N/A Fog Fog
4:35 AM 33.8 °F 30.8 °F 33.8 °F 100% 29.57 in 0.2 mi NNW 3.5 mph - N/A Fog Fog
4:55 AM 32.0 °F 27.5 °F 32.0 °F 100% 29.58 in 0.2 mi NNW 4.6 mph - N/A Fog Fog
5:15 AM 32.0 °F 25.6 °F 32.0 °F 100% 29.57 in 0.2 mi NNW 6.9 mph - N/A Fog Fog
5:35 AM 32.0 °F 24.2 °F 32.0 °F 100% 29.56 in 0.2 mi North 9.2 mph - N/A Fog Fog
5:55 AM 32.0 °F 24.2 °F 32.0 °F 100% 29.56 in 0.2 mi North 9.2 mph - N/A Fog Fog
6:15 AM 32.0 °F 24.2 °F 32.0 °F 100% 29.57 in 0.2 mi North 9.2 mph - N/A Fog Fog
6:35 AM 32.0 °F 26.4 °F 32.0 °F 100% 29.59 in 0.2 mi North 5.8 mph - N/A Fog Fog
6:55 AM 32.0 °F 26.4 °F 32.0 °F 100% 29.60 in 0.5 mi NNW 5.8 mph - N/A Fog Fog
7:15 AM 32.0 °F 26.4 °F 32.0 °F 100% 29.60 in 0.8 mi North 5.8 mph - N/A   Overcast
7:35 AM 32.0 °F 26.4 °F 32.0 °F 100% 29.60 in 0.5 mi North 5.8 mph - N/A Fog Fog
7:55 AM 32.0 °F 27.5 °F 32.0 °F 100% 29.60 in 0.2 mi North 4.6 mph - N/A Fog Fog
8:15 AM 32.0 °F 25.6 °F 32.0 °F 100% 29.59 in 0.2 mi NNE 6.9 mph - N/A Fog Fog
8:35 AM 32.0 °F 28.7 °F 32.0 °F 100% 29.59 in 0.2 mi North 3.5 mph - N/A Fog Fog
8:55 AM 32.0 °F 28.7 °F 32.0 °F 100% 29.59 in 0.2 mi North 3.5 mph - N/A Fog Fog
9:15 AM 32.0 °F 26.4 °F 32.0 °F 100% 29.59 in 0.2 mi North 5.8 mph - N/A Fog Fog
9:35 AM 32.0 °F 26.4 °F 32.0 °F 100% 29.58 in 0.2 mi North 5.8 mph - N/A Fog Fog
9:55 AM 32.0 °F 26.4 °F 32.0 °F 100% 29.58 in 0.5 mi North 5.8 mph - N/A Fog Fog
10:15 AM 32.0 °F 26.4 °F 32.0 °F 100% 29.58 in 4.0 mi North 5.8 mph - N/A   Overcast
10:35 AM 32.0 °F 27.5 °F 32.0 °F 100% 29.58 in 7.0 mi NNW 4.6 mph - N/A Snow Light Snow
10:55 AM 32.0 °F 28.7 °F 32.0 °F 100% 29.57 in 5.0 mi NNW 3.5 mph - N/A   Light Drizzle
11:15 AM 32.0 °F 27.5 °F 32.0 °F 100% 29.56 in 3.0 mi NNW 4.6 mph - N/A   Drizzle
11:35 AM 32.0 °F 25.6 °F 32.0 °F 100% 29.57 in 4.0 mi NW 6.9 mph - N/A   Light Drizzle
11:55 AM 32.0 °F 28.7 °F 32.0 °F 100% 29.57 in 4.0 mi NW 3.5 mph - N/A   Light Drizzle
12:15 PM 32.0 °F 23.6 °F 32.0 °F 100% 29.57 in 7.0 mi WNW 10.4 mph - N/A   Drizzle
12:35 PM 32.0 °F 23.0 °F 32.0 °F 100% 29.57 in 7.0 mi WNW 11.5 mph - N/A   Overcast
12:55 PM 32.0 °F 23.6 °F 32.0 °F 100% 29.57 in 5.0 mi WNW 10.4 mph - N/A   Overcast
1:15 PM 32.0 °F 22.1 °F 32.0 °F 100% 29.57 in 2.5 mi West 13.8 mph - N/A   Overcast
1:35 PM 32.0 °F 23.6 °F 32.0 °F 100% 29.56 in 4.0 mi WNW 10.4 mph - N/A Rain Light Rain
1:55 PM 32.0 °F 22.5 °F 32.0 °F 100% 29.56 in 7.0 mi WNW 12.7 mph - N/A   Overcast
2:15 PM 32.0 °F 21.6 °F 32.0 °F 100% 29.55 in 10.0 mi West 15.0 mph - N/A   Overcast
2:35 PM 33.8 °F 24.3 °F 33.8 °F 100% 29.56 in 10.0 mi West 13.8 mph - N/A   Overcast
2:55 PM 33.8 °F 24.8 °F 33.8 °F 100% 29.56 in 10.0 mi West 12.7 mph - N/A   Overcast
3:15 PM 32.0 °F 21.2 °F 32.0 °F 100% 29.56 in 10.0 mi WNW 16.1 mph - N/A   Overcast
3:35 PM 32.0 °F 21.6 °F 32.0 °F 100% 29.56 in 10.0 mi WNW 15.0 mph - N/A   Overcast
3:55 PM 32.0 °F 21.6 °F 32.0 °F 100% 29.57 in 10.0 mi West 15.0 mph 19.6 mph N/A   Overcast
4:15 PM 32.0 °F 23.0 °F 32.0 °F 100% 29.58 in 10.0 mi WNW 11.5 mph 20.7 mph N/A   Overcast
4:35 PM 32.0 °F 21.6 °F 32.0 °F 100% 29.58 in 10.0 mi WNW 15.0 mph 19.6 mph N/A   Overcast
4:55 PM 32.0 °F 22.5 °F 32.0 °F 100% 29.59 in 10.0 mi West 12.7 mph 17.3 mph N/A   Overcast
5:15 PM 32.0 °F 22.5 °F 32.0 °F 100% 29.60 in 10.0 mi West 12.7 mph 19.6 mph N/A   Overcast
5:35 PM 32.0 °F 21.6 °F 32.0 °F 100% 29.61 in 10.0 mi WNW 15.0 mph 23.0 mph N/A   Overcast
5:55 PM 32.0 °F 22.1 °F 32.0 °F 100% 29.62 in 10.0 mi WNW 13.8 mph 19.6 mph N/A   Overcast
6:15 PM 32.0 °F 21.2 °F 32.0 °F 100% 29.63 in 10.0 mi WNW 16.1 mph - N/A   Overcast
6:35 PM 32.0 °F 22.1 °F 32.0 °F 100% 29.64 in 10.0 mi West 13.8 mph 20.7 mph N/A   Overcast
6:55 PM 32.0 °F 22.5 °F 32.0 °F 100% 29.66 in 10.0 mi West 12.7 mph - N/A   Overcast
7:15 PM 32.0 °F 21.6 °F 32.0 °F 100% 29.66 in 7.0 mi West 15.0 mph 19.6 mph N/A Snow Light Snow
7:35 PM 32.0 °F 22.1 °F 32.0 °F 100% 29.68 in 10.0 mi West 13.8 mph 21.9 mph N/A Snow Light Snow
7:55 PM 32.0 °F 21.6 °F 32.0 °F 100% 29.68 in 10.0 mi West 15.0 mph 21.9 mph N/A   Overcast
8:15 PM 32.0 °F 22.5 °F 32.0 °F 100% 29.69 in 10.0 mi West 12.7 mph 20.7 mph N/A   Overcast
8:35 PM 32.0 °F 22.1 °F 32.0 °F 100% 29.70 in 10.0 mi West 13.8 mph - N/A   Overcast
8:55 PM 32.0 °F 22.5 °F 32.0 °F 100% 29.70 in 10.0 mi West 12.7 mph 17.3 mph N/A   Overcast
9:15 PM 32.0 °F 22.1 °F 32.0 °F 100% 29.72 in 10.0 mi West 13.8 mph 20.7 mph N/A   Overcast
9:35 PM 32.0 °F 21.6 °F 32.0 °F 100% 29.73 in 10.0 mi West 15.0 mph - N/A   Overcast
9:55 PM 32.0 °F 20.8 °F 32.0 °F 100% 29.74 in 10.0 mi West 17.3 mph 21.9 mph N/A   Overcast
10:15 PM 32.0 °F 21.2 °F 32.0 °F 100% 29.74 in 10.0 mi West 16.1 mph 21.9 mph N/A   Overcast
10:35 PM 32.0 °F 21.6 °F 32.0 °F 100% 29.75 in 10.0 mi West 15.0 mph 21.9 mph N/A   Overcast
10:55 PM 32.0 °F 21.2 °F 30.2 °F 93% 29.75 in 10.0 mi West 16.1 mph - N/A   Overcast
11:15 PM 32.0 °F 22.5 °F 30.2 °F 93% 29.75 in 10.0 mi West 12.7 mph 20.7 mph N/A   Overcast
11:35 PM 32.0 °F 21.2 °F 30.2 °F 93% 29.76 in 10.0 mi West 16.1 mph 19.6 mph N/A   Overcast
11:55 PM 32.0 °F 21.2 °F 30.2 °F 93% 29.77 in 10.0 mi West 16.1 mph 23.0 mph N/A   Overcast